Location: Miles
(41.4492°N, 81.6087°W)
Time: 21:45:00
(UTC+00:00)

Courier 1B Rocket - Pass Details

Date: 14 September 2024
Orbit: 920 x 1201 km, 28.2° (Epoch: 09 October)

Event Time Altitude Azimuth Distance (km) Brightness Sun altitude
Rises 22:23:22 0° 238° (WSW) 3,729 9.4 12.8°
Reaches altitude 10° 22:26:25 10° 227° (SW) 2,825 8.5 12.3°
Maximum altitude 22:32:00 27° 172° (S) 1,952 6.7 11.2°
Drops below altitude 10° 22:37:56 10° 119° (ESE) 2,998 7.1 10.1°
Sets 22:41:16 0° 107° (ESE) 4,000 7.6 9.5°
